Location: Three Guys Observatory
(38.6418°N, 87.1521°W)
Time: 10:28:23
(UTC-04:00)

ISS - Visible Passes

Search period start: 02 October 2014 00:00
Search period end: 12 October 2014 00:00
Orbit: 413 x 416 km, 51.6° (Epoch: 02 October)

Date Brightness Start Highest point End Pass type
(mag) Time Alt. Az. Time Alt. Az. Time Alt. Az.
02 Oct -2.2 06:25:07 28° SSW 06:25:07 28° SSW 06:27:33 10° SSE visible
04 Oct -0.6 21:24:03 10° SSW 21:24:30 13° SSW 21:24:30 13° SSW visible
05 Oct -2.2 20:35:19 10° SSW 20:38:09 27° SE 20:38:09 27° SE visible
06 Oct -1.8 21:22:12 10° WSW 21:24:30 37° W 21:24:30 37° W visible
07 Oct -3.4 20:32:52 10° SW 20:36:11 84° SE 20:37:45 29° NE visible
08 Oct -2.8 19:43:47 10° SSW 19:46:57 43° SE 19:50:07 10° ENE visible
08 Oct -1.2 21:20:59 10° W 21:23:41 23° NNW 21:23:41 23° NNW visible
09 Oct -1.9 20:31:12 10° W 20:34:17 36° NNW 20:36:36 16° NNE visible
10 Oct -2.8 19:41:35 10° WSW 19:44:53 62° NW 19:48:11 10° NE visible
10 Oct -0.5 21:20:16 10° NW 21:22:06 14° NNW 21:22:14 14° NNW visible
11 Oct -0.9 20:30:05 10° WNW 20:32:29 18° NNW 20:34:54 10° NNE visible
